TimeCST,TemperatureF,Dew PointF,Humidity,Sea Level PressureIn,VisibilityMPH,Wind Direction,Wind SpeedMPH,Gust SpeedMPH,PrecipitationIn,Events,Conditions,WindDirDegrees,DateUTC
12:06 AM,41.0,41.0,100,30.04,9.0,NNW,4.6,-,0.01,Rain,Light Rain,340,2013-01-01 06:06:00
12:36 AM,41.0,39.2,93,30.03,6.0,North,3.5,-,0.03,Rain,Rain,350,2013-01-01 06:36:00
12:43 AM,41.0,39.2,93,30.04,6.0,NNW,6.9,-,0.04,Rain,Rain,330,2013-01-01 06:43:00
12:53 AM,41.0,39.9,96,30.04,7.0,NW,4.6,-,0.05,Rain,Light Rain,320,2013-01-01 06:53:00
1:53 AM,41.0,41.0,100,30.04,7.0,NNW,6.9,-,0.06,Rain,Rain,340,2013-01-01 07:53:00
2:06 AM,41.0,41.0,100,30.04,10.0,NNW,4.6,-,0.02,Rain,Light Rain,330,2013-01-01 08:06:00
2:53 AM,39.9,39.9,100,30.06,8.0,NNW,5.8,-,0.07,Rain,Rain,340,2013-01-01 08:53:00
3:53 AM,39.9,39.0,97,30.06,8.0,North,4.6,-,0.06,Rain,Light Rain,350,2013-01-01 09:53:00
4:53 AM,39.2,39.2,100,30.05,8.0,NE,5.8,-,N/A,Rain,Light Rain,40,2013-01-01 10:53:00
5:53 AM,39.0,39.0,100,30.06,10.0,North,5.8,-,0.05,,Overcast,360,2013-01-01 11:53:00
6:48 AM,39.2,37.4,93,30.08,10.0,North,8.1,-,0.05,,Overcast,360,2013-01-01 12:48:00
6:53 AM,39.0,37.9,96,30.09,10.0,North,5.8,-,0.06,,Overcast,10,2013-01-01 12:53:00
7:53 AM,39.0,37.9,96,30.09,10.0,North,5.8,-,0.05,,Overcast,350,2013-01-01 13:53:00
8:53 AM,39.0,37.9,96,30.12,10.0,North,9.2,-,0.04,,Overcast,350,2013-01-01 14:53:00
9:53 AM,39.9,37.9,93,30.17,10.0,NNW,6.9,-,0.05,,Overcast,340,2013-01-01 15:53:00
10:26 AM,39.2,37.4,93,30.18,10.0,North,8.1,-,0.02,,Overcast,360,2013-01-01 16:26:00
10:53 AM,39.9,37.9,93,30.18,10.0,North,9.2,-,0.04,,Overcast,360,2013-01-01 16:53:00
11:18 AM,39.2,37.4,93,30.16,10.0,North,9.2,-,0.01,,Overcast,350,2013-01-01 17:18:00
11:53 AM,39.9,37.9,93,30.14,10.0,North,6.9,-,0.02,,Overcast,360,2013-01-01 17:53:00
12:36 PM,39.2,37.4,93,30.11,10.0,NNE,6.9,-,0.01,,Overcast,20,2013-01-01 18:36:00
12:53 PM,39.9,37.9,93,30.12,10.0,North,5.8,-,0.01,,Overcast,10,2013-01-01 18:53:00
1:53 PM,41.0,37.9,89,30.10,10.0,North,9.2,-,N/A,,Overcast,350,2013-01-01 19:53:00
2:53 PM,39.9,37.9,93,30.12,10.0,NNW,8.1,-,N/A,,Overcast,340,2013-01-01 20:53:00
3:53 PM,39.9,37.0,89,30.14,10.0,North,9.2,-,N/A,,Overcast,350,2013-01-01 21:53:00
4:53 PM,39.9,37.0,89,30.17,10.0,North,10.4,-,N/A,,Overcast,350,2013-01-01 22:53:00
5:18 PM,39.2,37.4,93,30.18,10.0,North,9.2,-,N/A,,Overcast,350,2013-01-01 23:18:00
5:27 PM,39.2,37.4,93,30.19,10.0,North,8.1,-,N/A,,Overcast,360,2013-01-01 23:27:00
5:53 PM,39.9,37.0,89,30.19,10.0,North,11.5,-,N/A,,Overcast,360,2013-01-01 23:53:00
6:53 PM,39.0,37.0,93,30.19,10.0,North,8.1,-,N/A,,Overcast,10,2013-01-02 00:53:00
7:53 PM,39.0,37.0,93,30.20,10.0,North,8.1,-,N/A,,Overcast,360,2013-01-02 01:53:00
8:06 PM,39.2,37.4,93,30.20,10.0,NNE,8.1,-,N/A,,Overcast,30,2013-01-02 02:06:00
8:15 PM,39.2,35.6,87,30.20,10.0,NNE,12.7,-,N/A,,Overcast,20,2013-01-02 02:15:00
8:29 PM,39.2,35.6,87,30.20,10.0,North,11.5,-,N/A,,Overcast,10,2013-01-02 02:29:00
8:53 PM,39.0,36.0,89,30.22,10.0,North,8.1,-,N/A,,Overcast,10,2013-01-02 02:53:00
9:08 PM,39.2,35.6,87,30.21,10.0,North,11.5,-,N/A,,Overcast,10,2013-01-02 03:08:00
9:51 PM,39.2,35.6,87,30.23,10.0,North,11.5,-,N/A,,Overcast,10,2013-01-02 03:51:00
9:53 PM,39.0,35.1,86,30.23,10.0,North,9.2,-,N/A,,Overcast,10,2013-01-02 03:53:00
10:53 PM,37.9,35.1,89,30.23,10.0,NE,5.8,-,N/A,,Overcast,40,2013-01-02 04:53:00
11:37 PM,37.4,35.6,93,30.22,10.0,NNE,5.8,-,N/A,,Overcast,20,2013-01-02 05:37:00
11:53 PM,37.9,35.1,89,30.23,10.0,NE,5.8,-,N/A,,Overcast,40,2013-01-02 05:53:00